Epoch,demod_status_bits,ebno,lock_status,signal_level,viterbi_ber
1665339703,C;S;V;F,14.5,0x00c000,-36.2,0.00e-0
1665339704,C;S;V;F,14.6,0x00c000,-36.5,0.00e-0
1665339705,C;S;V;F,14.4,0x00c000,-37.6,0.00e-0
1665339706,,14.5,0x00c000,-37.5,
1665339707,C;S;V;F,,,,0.00e-0
1665339709,C;S;V;F,14.9,0x00c000,-36.6,0.00e-0
1665339710,C;S;V;F,15.3,0x00c000,-36.1,0.00e-0
1665339711,C;S;V;F,15.4,0x00c000,-36.4,
1665339712,,15.4,0x00c000,-37.1,0.00e-0
1665339713,C;S;V;F,15.8,0x00c000,-36.8,0.00e-0
1665339714,C;S;V;F,,0x00c000,-36.8,0.00e-0
1665339715,C;S;V;F,14.8,0x00c000,,0.00e-0
1665339716,C;S;V;F,15.1,0x00c000,-36.7,0.00e-0
1665339717,C;S;V;F,15.6,0x00c000,-36.3,0.00e-0
1665339718,C;S;V;F,15.2,0x00c000,-37.1,0.00e-0
1665339719,C;S;V;F,15.9,0x00c000,-36.0,0.00e-0
1665339720,C;S;V;F,15.5,0x00c000,-36.5,0.00e-0
1665339721,C;S;V;F,15.0,0x00c000,-36.7,0.00e-0
1665339722,C;S;V;F,15.4,0x00c000,-36.3,
1665339723,,15.4,0x00c000,-36.6,0.00e-0
1665339724,C;S;V;F,15.2,0x00c000,-36.5,0.00e-0
1665339725,C;S;V;F,15.7,0x00c000,-36.0,0.00e-0
1665339726,C;S;V;F,,0x00c000,-36.0,0.00e-0
1665339727,C;S;V;F,15.9,0x00c000,,0.00e-0
1665339728,C;S;V;F,15.7,0x00c000,-36.4,0.00e-0
1665339729,C;S;V;F,15.8,0x00c000,-36.3,0.00e-0
1665339730,C;S;V;F,15.9,0x00c000,-36.2,0.00e-0
1665339731,C;S;V;F,15.7,0x00c000,-36.3,0.00e-0
1665339732,C;S;V;F,16.1,0x00c000,-36.0,0.00e-0
1665339733,C;S;V;F,15.8,0x00c000,-36.3,0.00e-0
1665339734,C;S;V;F,15.5,0x00c000,-36.3,0.00e-0
1665339735,C;S;V;F,16.2,0x00c000,-35.8,0.00e-0
1665339736,C;S;V;F,16.1,0x00c000,-36.0,0.00e-0
1665339737,,15.7,0x00c000,-36.1,
1665339738,C;S;V;F,15.8,0x00c000,-36.1,0.00e-0
1665339739,C;S;V;F,,0x00c000,-36.1,0.00e-0
1665339740,C;S;V;F,15.9,0x00c000,,0.00e-0
1665339741,C;S;V;F,16.1,0x00c000,-36.3,0.00e-0
1665339742,C;S;V;F,15.5,0x00c000,-36.1,0.00e-0
1665339743,C;S;V;F,15.9,0x00c000,-35.9,0.00e-0
1665339744,C;S;V;F,16.1,0x00c000,-36.0,0.00e-0
1665339745,C;S;V;F,15.8,0x00c000,-36.0,0.00e-0
1665339746,C;S;V;F,16.0,0x00c000,-35.9,0.00e-0
1665339747,C;S;V;F,16.1,0x00c000,-36.0,0.00e-0
1665339748,C;S;V;F,15.9,0x00c000,-36.0,0.00e-0
1665339749,C;S;V;F,16.0,0x00c000,-36.0,
1665339750,,15.9,0x00c000,-36.0,0.00e-0
1665339751,C;S;V;F,15.9,0x00c000,-35.9,0.00e-0
1665339752,C;S;V;F,16.0,0x00c000,-35.9,0.00e-0
1665339753,C;S;V;F,,0x00c000,-35.7,0.00e-0
1665339754,C;S;V;F,16.0,0x00c000,-35.4,0.00e-0
1665339755,C;S;V;F,16.5,0x00c000,,0.00e-0
1665339756,C;S;V;F,16.5,0x00c000,-35.6,0.00e-0
1665339757,C;S;V;F,16.6,0x00c000,-35.7,0.00e-0
1665339758,C;S;V;F,16.1,0x00c000,-35.9,0.00e-0
1665339759,C;S;V;F,16.4,0x00c000,-35.6,0.00e-0
1665339760,C;S;V;F,16.3,0x00c000,-35.5,0.00e-0
1665339761,C;S;V;F,15.9,0x00c000,-36.2,0.00e-0
1665339762,C;S;V;F,16.1,0x00c000,-35.6,0.00e-0
1665339763,C;S;V;F,16.6,0x00c000,-35.5,
1665339764,C;S;V;F,16.7,0x00c000,-35.5,0.00e-0
1665339765,,16.8,0x00c000,-35.2,0.00e-0
1665339766,C;S;V;F,16.6,0x00c000,-35.2,0.00e-0
1665339767,C;S;V;F,16.5,0x00c000,-35.6,0.00e-0
1665339768,C;S;V;F,,0x00c000,-35.2,0.00e-0
1665339769,C;S;V;F,16.6,0x00c000,,0.00e-0
1665339771,C;S;V;F,16.8,0x00c000,-35.2,0.00e-0
1665339772,C;S;V;F,16.7,0x00c000,-35.2,0.00e-0
1665339773,C;S;V;F,16.8,0x00c000,-35.2,0.00e-0
1665339774,C;S;V;F,16.7,0x00c000,-35.3,
1665339775,,16.9,0x00c000,-35.3,0.00e-0
1665339776,C;S;V;F,16.5,0x00c000,-35.3,0.00e-0
1665339777,C;S;V;F,16.9,0x00c000,-34.9,0.00e-0
1665339778,C;S;V;F,16.8,0x00c000,-35.0,0.00e-0
1665339779,C;S;V;F,,0x00c000,-35.0,0.00e-0
1665339780,C;S;V;F,16.8,0x00c000,,0.00e-0
1665339781,C;S;V;F,16.8,0x00c000,-34.9,0.00e-0
1665339782,C;S;V;F,16.6,0x00c000,-35.3,0.00e-0
1665339783,C;S;V;F,16.6,0x00c000,-35.4,0.00e-0
1665339784,C;S;V;F,17.2,0x00c000,-35.0,0.00e-0
1665339785,C;S;V;F,16.9,0x00c000,-35.0,0.00e-0
1665339786,C;S;V;F,16.7,0x00c000,-35.2,0.00e-0
1665339787,C;S;V;F,16.8,0x00c000,-35.1,0.00e-0
1665339788,C;S;V;F,16.7,0x00c000,-35.4,0.00e-0
1665339789,C;S;V;F,17.0,0x00c000,-35.2,
1665339790,,17.0,0x00c000,-35.1,0.00e-0
1665339791,C;S;V;F,17.0,0x00c000,-35.0,0.00e-0
1665339792,C;S;V;F,16.9,0x00c000,-35.4,0.00e-0
1665339793,C;S;V;F,,0x00c000,-35.0,0.00e-0
1665339794,C;S;V;F,17.1,0x00c000,,0.00e-0
1665339795,C;S;V;F,17.0,0x00c000,-34.9,0.00e-0
1665339796,C;S;V;F,17.0,0x00c000,-35.0,0.00e-0
1665339797,C;S;V;F,17.1,0x00c000,-35.1,0.00e-0
1665339798,C;S;V;F,17.3,0x00c000,-34.8,0.00e-0
1665339799,C;S;V;F,17.0,0x00c000,-35.2,0.00e-0
1665339800,C;S;V;F,17.1,0x00c000,-35.0,0.00e-0
1665339801,,16.9,0x00c000,-35.1,
1665339802,C;S;V;F,17.2,0x00c000,-35.1,0.00e-0
1665339803,C;S;V;F,,0x00c000,-35.0,0.00e-0
1665339804,C;S;V;F,16.9,0x00c000,-35.0,0.00e-0
1665339805,C;S;V;F,17.2,0x00c000,,0.00e-0
1665339806,C;S;V;F,17.2,0x00c000,-34.8,0.00e-0
1665339807,C;S;V;F,17.1,0x00c000,-35.0,0.00e-0
1665339808,C;S;V;F,17.3,0x00c000,-34.9,0.00e-0
1665339809,C;S;V;F,17.1,0x00c000,-35.1,0.00e-0
1665339810,C;S;V;F,17.2,0x00c000,-34.8,0.00e-0
1665339811,C;S;V;F,17.1,0x00c000,-34.9,0.00e-0
1665339812,C;S;V;F,17.2,0x00c000,-34.9,
1665339813,,16.9,0x00c000,-34.8,0.00e-0
1665339814,C;S;V;F,17.0,0x00c000,-34.9,0.00e-0
1665339815,C;S;V;F,17.2,0x00c000,-34.7,0.00e-0
1665339816,C;S;V;F,,0x00c000,-34.9,0.00e-0
1665339817,C;S;V;F,17.3,0x00c000,,0.00e-0
1665339818,C;S;V;F,17.1,0x00c000,-34.8,0.00e-0
1665339819,C;S;V;F,17.2,0x00c000,-34.9,0.00e-0
1665339820,C;S;V;F,17.5,0x00c000,-34.8,0.00e-0
1665339821,C;S;V;F,17.3,0x00c000,-35.0,0.00e-0
1665339822,C;S;V;F,17.3,0x00c000,-34.8,0.00e-0
1665339823,C;S;V;F,17.5,0x00c000,-34.8,0.00e-0
1665339824,,17.3,0x00c000,-34.8,
1665339825,C;S;V;F,17.3,0x00c000,-34.8,0.00e-0
1665339826,C;S;V;F,,0x00c000,-35.0,0.00e-0
1665339827,C;S;V;F,17.1,0x00c000,,0.00e-0
1665339828,C;S;V;F,17.2,0x00c000,-34.8,0.00e-0
1665339829,C;S;V;F,17.2,0x00c000,-34.8,0.00e-0
1665339830,C;S;V;F,17.2,0x00c000,-34.8,0.00e-0
1665339831,C;S;V;F,17.2,0x00c000,-34.9,0.00e-0
1665339832,C;S;V;F,17.4,0x00c000,-34.7,0.00e-0
1665339834,,,0x00c000,-34.8,
1665339835,C;S;V;F,17.2,0x00c000,,0.00e-0
1665339836,C;S;V;F,17.4,0x00c000,-34.9,0.00e-0
1665339837,C;S;V;F,17.3,0x00c000,-34.8,0.00e-0
1665339838,C;S;V;F,17.4,0x00c000,-34.8,0.00e-0
1665339839,C;S;V;F,17.6,0x00c000,-34.8,0.00e-0
1665339840,C;S;V;F,17.5,0x00c000,-34.7,0.00e-0
1665339841,C;S;V;F,17.3,0x00c000,-34.8,0.00e-0
1665339842,C;S;V;F,17.6,0x00c000,-34.7,
1665339843,,17.6,0x00c000,-34.8,0.00e-0
1665339844,C;S;V;F,17.4,0x00c000,-34.8,0.00e-0
1665339845,C;S;V;F,17.5,0x00c000,-34.8,0.00e-0
1665339846,C;S;V;F,,0x00c000,-34.8,0.00e-0
1665339847,C;S;V;F,17.5,0x00c000,-34.8,0.00e-0
1665339848,C;S;V;F,17.4,0x00c000,,0.00e-0
1665339849,C;S;V;F,17.4,0x00c000,-34.7,0.00e-0
1665339850,C;S;V;F,17.7,0x00c000,-34.8,0.00e-0
1665339851,C;S;V;F,17.5,0x00c000,-34.9,0.00e-0
1665339852,C;S;V;F,17.4,0x00c000,-34.9,0.00e-0
1665339853,C;S;V;F,17.6,0x00c000,-34.6,0.00e-0
1665339854,C;S;V;F,17.5,0x00c000,-34.9,
1665339855,,17.5,0x00c000,-34.8,0.00e-0
1665339856,C;S;V;F,17.4,0x00c000,-34.7,0.00e-0
1665339857,C;S;V;F,,0x00c000,-34.8,0.00e-0
1665339858,C;S;V;F,17.2,0x00c000,-34.9,0.00e-0
1665339859,C;S;V;F,17.3,0x00c000,-34.8,0.00e-0
1665339860,C;S;V;F,17.6,0x00c000,,0.00e-0
1665339861,C;S;V;F,17.2,0x00c000,-35.1,0.00e-0
1665339862,C;S;V;F,17.4,0x00c000,-35.1,0.00e-0
1665339863,C;S;V;F,17.5,0x00c000,-34.8,0.00e-0
1665339864,C;S;V;F,17.4,0x00c000,-35.0,0.00e-0
1665339865,C;S;V;F,17.6,0x00c000,-35.0,0.00e-0
1665339866,C;S;V;F,17.5,0x00c000,-35.0,0.00e-0
1665339867,,17.3,0x00c000,-35.0,
1665339868,C;S;V;F,17.4,0x00c000,-34.9,0.00e-0
1665339869,C;S;V;F,,0x00c000,-34.9,0.00e-0
1665339870,C;S;V;F,17.4,0x00c000,,0.00e-0
1665339871,C;S;V;F,17.1,0x00c000,-34.9,0.00e-0
1665339872,C;S;V;F,17.3,0x00c000,-35.2,0.00e-0
1665339873,C;S;V;F,17.4,0x00c000,-34.9,0.00e-0
1665339874,C;S;V;F,17.0,0x00c000,-35.2,0.00e-0
1665339875,C;S;V;F,17.2,0x00c000,-35.2,0.00e-0
1665339876,C;S;V;F,17.2,0x00c000,-35.2,0.00e-0
1665339877,C;S;V;F,17.1,0x00c000,-35.2,
1665339878,,17.2,0x00c000,-35.4,0.00e-0
1665339879,C;S;V;F,17.0,0x00c000,-35.3,0.00e-0
1665339880,C;S;V;F,,0x00c000,-35.5,0.00e-0
1665339881,C;S;V;F,17.1,0x00c000,-35.6,0.00e-0
1665339882,C;S;V;F,16.9,0x00c000,,0.00e-0
1665339883,C;S;V;F,16.8,0x00c000,-35.6,0.00e-0
1665339884,C;S;V;F,17.0,0x00c000,-35.6,0.00e-0
1665339885,C;S;V;F,16.8,0x00c000,-35.6,0.00e-0
1665339886,C;S;V;F,16.9,0x00c000,-36.0,0.00e-0
1665339887,C;S;V;F,16.7,0x00c000,-35.9,
1665339888,,16.5,0x00c000,-36.1,0.00e-0
1665339889,C;S;V;F,16.6,0x00c000,-36.0,0.00e-0
1665339890,C;S;V;F,16.5,0x00c000,-36.3,0.00e-0
1665339891,C;S;V;F,,0x00c000,-36.2,0.00e-0
1665339892,C;S;V;F,16.5,0x00c000,-36.2,0.00e-0
1665339893,C;S;V;F,16.3,0x00c000,,0.00e-0
1665339894,C;S;V;F,16.3,0x00c000,-36.3,0.00e-0
1665339895,C;S;V;F,16.3,0x00c000,-36.3,0.00e-0
1665339897,,15.8,0x00c000,-36.8,
1665339898,C;S;V;F,16.0,0x00c000,-36.8,0.00e-0
1665339899,C;S;V;F,,0x00c000,-37.2,0.00e-0
1665339900,C;S;V;F,15.8,0x00c000,,0.00e-0
1665339901,C;S;V;F,15.6,0x00c000,-37.4,0.00e-0
1665339902,C;S;V;F,15.6,0x00c000,-37.2,0.00e-0
1665339903,C;S;V;F,15.5,0x00c000,-37.4,0.00e-0
1665339904,C;S;V;F,15.4,0x00c000,-37.3,0.00e-0
1665339905,C;S;V;F,15.2,0x00c000,-37.5,0.00e-0
1665339906,C;S;V;F,15.2,0x00c000,-37.4,0.00e-0
1665339907,,15.3,0x00c000,-37.6,
1665339908,C;S;V;F,15.3,0x00c000,-37.6,0.00e-0
1665339909,C;S;V;F,15.0,0x00c000,-37.9,0.00e-0
1665339910,C;S;V;F,15.1,0x00c000,-37.9,0.00e-0
1665339911,C;S;V;F,,0x00c000,-38.0,0.00e-0
1665339912,C;S;V;F,15.0,0x00c000,,0.00e-0
1665339913,C;S;V;F,15.0,0x00c000,-37.9,0.00e-0
1665339914,C;S;V;F,14.8,0x00c000,-38.0,0.00e-0
1665339915,C;S;V;F,14.8,0x00c000,-38.2,0.00e-0
1665339916,C;S;V;F,14.8,0x00c000,-38.0,0.00e-0
1665339917,C;S;V;F,14.7,0x00c000,-38.0,0.00e-0
1665339918,C;S;V;F,15.2,0x00c000,-38.0,0.00e-0
1665339919,C;S;V;F,14.8,0x00c000,-37.9,0.00e-0
1665339920,C;S;V;F,15.1,0x00c000,-37.9,0.00e-0
1665339921,C;S;V;F,15.1,0x00c000,-37.9,0.00e-0
1665339922,C;S;V;F,15.2,0x00c000,-37.9,
1665339923,,14.9,0x00c000,-37.7,0.00e-0
1665339924,C;S;V;F,15.1,0x00c000,-37.9,0.00e-0
1665339925,C;S;V;F,15.0,0x00c000,-38.0,0.00e-0
1665339926,C;S;V;F,,0x00c000,-37.9,0.00e-0
1665339927,C;S;V;F,15.0,0x00c000,-37.8,0.00e-0
1665339928,C;S;V;F,14.9,0x00c000,,0.00e-0
1665339929,C;S;V;F,15.2,0x00c000,-37.7,0.00e-0
1665339930,C;S;V;F,15.1,0x00c000,-37.9,0.00e-0
1665339931,C;S;V;F,15.1,0x00c000,-37.8,0.00e-0
1665339932,C;S;V;F,15.3,0x00c000,-37.8,0.00e-0
1665339933,C;S;V;F,15.3,0x00c000,-37.5,0.00e-0
1665339934,C;S;V;F,15.6,0x00c000,-37.2,0.00e-0
1665339935,C;S;V;F,15.5,0x00c000,-37.2,
1665339936,,15.6,0x00c000,-37.3,0.00e-0
1665339937,C;S;V;F,15.6,0x00c000,-37.4,0.00e-0
1665339938,C;S;V;F,15.1,0x00c000,-37.3,0.00e-0
1665339939,C;S;V;F,,0x00c000,-37.6,0.00e-0
1665339940,C;S;V;F,15.4,0x00c000,-37.5,0.00e-0
1665339941,C;S;V;F,15.1,0x00c000,,0.00e-0
1665339942,C;S;V;F,15.4,0x00c000,-37.5,0.00e-0
1665339943,C;S;V;F,15.4,0x00c000,-37.6,0.00e-0
1665339944,C;S;V;F,15.2,0x00c000,-37.6,0.00e-0
1665339945,C;S;V;F,15.1,0x00c000,-37.7,0.00e-0
1665339946,C;S;V;F,15.0,0x00c000,-38.2,0.00e-0
1665339947,C;S;V;F,14.6,0x00c000,-38.5,
1665339948,,14.2,0x00c000,-38.9,0.00e-0
1665339949,C;S;V;F,14.0,0x00c000,-38.8,0.00e-0
1665339950,C;S;V;F,14.2,0x00c000,-38.7,0.00e-0
1665339951,C;S;V;F,14.2,0x00c000,-38.7,0.00e-0
1665339952,C;S;V;F,,0x00c000,-38.4,0.00e-0
1665339953,C;S;V;F,14.4,0x00c000,,0.00e-0
1665339954,C;S;V;F,14.4,0x00c000,-38.7,0.00e-0
1665339955,C;S;V;F,14.3,0x00c000,-38.8,0.00e-0
1665339956,C;S;V;F,14.2,0x00c000,-39.4,0.00e-0
1665339957,C;S;V;F,13.1,0x00c000,-39.7,0.00e-0
1665339960,C;S;V;F,13.6,0x00c000,-39.4,0.00e-0
1665339961,C;S;V;F,13.8,0x00c000,-39.2,0.00e-0
1665339962,C;S;V;F,13.9,0x00c000,-39.0,0.00e-0
1665339963,C;S;V;F,13.8,0x00c000,-38.8,
1665339964,,14.0,0x00c000,-38.8,0.00e-0
1665339965,C;S;V;F,14.0,0x00c000,-38.8,0.00e-0
1665339966,C;S;V;F,,0x00c000,,0.00e-0
1665339969,,13.4,0x00c000,-39.6,
1665339970,C;S;V;F,12.8,0x00c000,-40.1,0.00e-0
1665339971,C;S;V;F,,0x00c000,-40.4,0.00e-0
1665339972,C;S;V;F,12.7,0x00c000,,3.03e-7
1665339973,C;S;V;F,12.6,0x00c000,-40.4,1.51e-7
1665339974,C;S;V;F,12.6,0x00c000,-40.0,3.03e-7
1665339975,C;S;V;F,13.0,0x00c000,-39.8,0.00e-0
1665339976,C;S;V;F,13.0,0x00c000,-40.2,1.51e-7
1665339977,C;S;V;F,12.8,0x00c000,-40.0,4.54e-7
1665339978,C;S;V;F,12.7,0x00c000,-40.0,1.51e-7
1665339979,C;S;V;F,13.7,0x00c000,-39.2,1.51e-7
1665339980,C;S;V;F,14.3,0x00c000,-38.4,
1665339981,,15.0,0x00c000,-37.4,0.00e-0
1665339982,C;S;V;F,15.3,0x00c000,-37.4,0.00e-0
1665339983,C;S;V;F,15.1,0x00c000,-37.7,0.00e-0
1665339984,C;S;V;F,14.9,0x00c000,-38.0,0.00e-0
1665339985,C;S;V;F,15.0,0x00c000,-37.6,0.00e-0
1665339986,C;S;V;F,,0x00c000,-37.1,0.00e-0
1665339987,C;S;V;F,15.2,0x00c000,-36.4,0.00e-0
1665339988,C;S;V;F,15.9,0x00c000,,0.00e-0
1665339989,C;S;V;F,15.7,0x00c000,-37.2,0.00e-0
1665339990,C;S;V;F,15.4,0x00c000,-37.7,0.00e-0
1665339991,C;S;V;F,15.1,0x00c000,-38.0,0.00e-0
1665339992,C;S;V;F,15.1,0x00c000,-37.9,0.00e-0
1665339993,C;S;V;F,15.9,0x00c000,-37.2,0.00e-0
1665339994,,15.3,0x00c000,-38.0,
1665339995,C;S;V;F,,0x00c000,-38.5,0.00e-0
1665339996,C;S;V;F,14.7,0x00c000,-38.7,0.00e-0
1665339997,C;S;V;F,14.4,0x00c000,,0.00e-0
1665339998,C;S;V;F,14.4,0x00c000,-38.5,0.00e-0
1665339999,C;S;V;F,14.7,0x00c000,-38.2,0.00e-0
1665340000,C;S;V;F,14.9,0x00c000,-38.4,0.00e-0
1665340001,C;S;V;F,14.2,0x00c000,-39.3,0.00e-0
1665340002,C;S;V;F,15.0,0x00c000,-38.3,0.00e-0
1665340003,C;S;V;F,15.5,0x00c000,-37.2,0.00e-0
1665340004,,14.2,0x00c000,-38.8,
1665340005,C;S;V;F,13.8,0x00c000,-39.4,0.00e-0
1665340006,C;S;V;F,14.7,0x00c000,-38.3,0.00e-0
1665340007,C;S;V;F,,0x00c000,-38.7,0.00e-0
1665340008,C;S;V;F,14.7,0x00c000,,0.00e-0
1665340009,C;S;V;F,13.8,0x00c000,-39.2,0.00e-0
1665340010,C;S;V;F,14.0,0x00c000,-38.4,0.00e-0
1665340011,C;S;V;F,14.8,0x00c000,-38.7,0.00e-0
1665340012,C;S;V;F,13.5,0x00c000,-40.1,1.51e-7
1665340013,C;S;V;F,15.1,0x00c000,-38.5,1.51e-7
1665340014,C;S;V;F,15.1,0x00c000,-37.3,0.00e-0
1665340015,C;S;V;F,15.3,0x00c000,-37.8,0.00e-0
1665340016,C;S;V;F,15.4,0x00c000,-36.5,0.00e-0
1665340017,C;S;V;F,16.7,0x00c000,-35.1,
1665340018,,16.3,0x00c000,-36.5,0.00e-0
1665340019,C;S;V;F,17.0,0x00c000,-35.6,0.00e-0
1665340020,C;S;V;F,,0x00c000,-34.7,0.00e-0
1665340021,C;S;V;F,17.4,0x00c000,,0.00e-0
1665340023,C;S;V;F,17.5,0x00c000,-34.8,0.00e-0
1665340024,C;S;V;F,17.7,0x00c000,-34.0,0.00e-0
1665340025,C;S;V;F,17.7,0x00c000,-34.3,0.00e-0
1665340026,C;S;V;F,18.0,0x00c000,-33.8,0.00e-0
1665340027,C;S;V;F,18.2,0x00c000,-33.4,0.00e-0
1665340028,C;S;V;F,18.6,0x00c000,-33.2,
1665340029,,18.6,0x00c000,-33.1,0.00e-0
1665340030,C;S;V;F,18.4,0x00c000,-33.6,0.00e-0
1665340031,C;S;V;F,,0x00c000,-33.7,0.00e-0
1665340032,C;S;V;F,18.4,0x00c000,,0.00e-0
1665340033,C;S;V;F,18.4,0x00c000,-33.6,0.00e-0
1665340034,C;S;V;F,18.2,0x00c000,-33.9,0.00e-0
1665340035,C;S;V;F,18.3,0x00c000,-33.9,0.00e-0
1665340036,C;S;V;F,17.6,0x00c000,-34.6,0.00e-0
1665340037,C;S;V;F,18.0,0x00c000,-34.1,0.00e-0
1665340038,C;S;V;F,17.8,0x00c000,-34.5,0.00e-0
1665340039,C;S;V;F,17.3,0x00c000,-35.6,0.00e-0
1665340040,C;S;V;F,17.3,0x00c000,-35.4,0.00e-0
1665340041,,17.1,0x00c000,-35.6,
1665340042,C;S;V;F,16.9,0x00c000,-35.6,0.00e-0
1665340043,C;S;V;F,16.9,0x00c000,-36.0,0.00e-0
1665340044,C;S;V;F,,0x00c000,-35.6,0.00e-0
1665340045,C;S;V;F,16.9,0x00c000,,0.00e-0
1665340046,C;S;V;F,16.9,0x00c000,-35.4,0.00e-0
1665340047,C;S;V;F,16.7,0x00c000,-36.5,0.00e-0
1665340048,C;S;V;F,16.5,0x00c000,-36.4,0.00e-0
1665340049,C;S;V;F,16.3,0x00c000,-36.8,0.00e-0
1665340050,C;S;V;F,16.1,0x00c000,-37.1,0.00e-0
1665340051,C;S;V;F,16.1,0x00c000,-37.2,0.00e-0
1665340052,C;S;V;F,15.5,0x00c000,-37.6,0.00e-0
1665340053,C;S;V;F,15.4,0x00c000,-37.3,0.00e-0
1665340054,,16.2,0x00c000,-37.1,
1665340055,C;S;V;F,17.0,0x00c000,-36.0,0.00e-0
1665340056,C;S;V;F,16.9,0x00c000,-36.0,0.00e-0
1665340057,C;S;V;F,,0x00c000,-35.9,0.00e-0
1665340058,C;S;V;F,16.9,0x00c000,,0.00e-0
1665340059,C;S;V;F,16.7,0x00c000,-36.2,0.00e-0
1665340060,C;S;V;F,16.7,0x00c000,-36.2,0.00e-0
1665340061,C;S;V;F,16.8,0x00c000,-35.5,0.00e-0
1665340062,C;S;V;F,17.1,0x00c000,-35.6,0.00e-0
1665340063,C;S;V;F,17.1,0x00c000,-35.2,0.00e-0
1665340064,C;S;V;F,17.1,0x00c000,-35.6,0.00e-0
1665340065,C;S;V;F,17.2,0x00c000,-35.2,
1665340066,,17.3,0x00c000,-34.9,0.00e-0
1665340067,C;S;V;F,17.3,0x00c000,-34.8,0.00e-0
1665340068,C;S;V;F,,0x00c000,-34.5,0.00e-0
1665340069,C;S;V;F,18.0,0x00c000,-34.2,0.00e-0
1665340070,C;S;V;F,18.0,0x00c000,,0.00e-0
1665340071,C;S;V;F,18.2,0x00c000,-33.9,0.00e-0
1665340072,C;S;V;F,18.1,0x00c000,-34.0,0.00e-0
1665340073,C;S;V;F,18.2,0x00c000,-33.3,0.00e-0
1665340074,C;S;V;F,18.1,0x00c000,-34.0,0.00e-0
1665340075,C;S;V;F,18.0,0x00c000,-33.9,0.00e-0
1665340076,C;S;V;F,18.4,0x00c000,-33.7,0.00e-0
1665340077,,18.5,0x00c000,-33.6,
1665340078,C;S;V;F,18.3,0x00c000,-33.4,0.00e-0
1665340079,C;S;V;F,18.3,0x00c000,-33.3,0.00e-0
1665340080,C;S;V;F,,0x00c000,-33.3,0.00e-0
1665340081,C;S;V;F,18.4,0x00c000,,0.00e-0
1665340082,C;S;V;F,18.3,0x00c000,-33.1,0.00e-0
1665340083,C;S;V;F,18.6,0x00c000,-32.8,0.00e-0
1665340086,C;S;V;F,18.8,0x00c000,-32.9,0.00e-0
1665340087,C;S;V;F,18.5,0x00c000,-33.3,0.00e-0
1665340088,C;S;V;F,18.4,0x00c000,-33.4,0.00e-0
1665340089,C;S;V;F,18.4,0x00c000,-33.6,0.00e-0
1665340090,C;S;V;F,18.0,0x00c000,-33.8,
1665340091,C;S;V;F,18.1,0x00c000,-34.2,0.00e-0
1665340092,,17.8,0x00c000,-34.4,0.00e-0
1665340093,C;S;V;F,,0x00c000,-34.4,0.00e-0
1665340094,C;S;V;F,17.7,0x00c000,,0.00e-0
1665340095,C;S;V;F,18.0,0x00c000,-34.4,0.00e-0
1665340096,C;S;V;F,18.0,0x00c000,-34.6,0.00e-0
1665340097,C;S;V;F,17.7,0x00c000,-34.8,0.00e-0
1665340098,C;S;V;F,17.5,0x00c000,-35.1,0.00e-0
1665340099,C;S;V;F,17.4,0x00c000,-35.3,0.00e-0
1665340100,C;S;V;F,17.0,0x00c000,-35.5,0.00e-0
1665340101,C;S;V;F,17.0,0x00c000,-35.9,0.00e-0
1665340102,C;S;V;F,16.9,0x00c000,-35.6,
1665340103,,17.5,0x00c000,-34.8,0.00e-0
1665340104,C;S;V;F,16.9,0x00c000,-35.2,0.00e-0
1665340105,C;S;V;F,17.2,0x00c000,-34.9,0.00e-0
1665340106,C;S;V;F,,0x00c000,-34.8,0.00e-0
1665340107,C;S;V;F,17.7,0x00c000,-34.9,0.00e-0
1665340108,C;S;V;F,17.6,0x00c000,,0.00e-0
1665340109,C;S;V;F,17.5,0x00c000,-34.8,0.00e-0
1665340110,C;S;V;F,17.6,0x00c000,-34.7,0.00e-0
1665340111,C;S;V;F,18.0,0x00c000,-34.2,0.00e-0
1665340112,C;S;V;F,18.1,0x00c000,-33.9,0.00e-0
1665340113,C;S;V;F,17.9,0x00c000,-33.9,0.00e-0
1665340114,C;S;V;F,18.0,0x00c000,-34.1,0.00e-0
1665340115,C;S;V;F,18.0,0x00c000,-34.2,0.00e-0
1665340116,C;S;V;F,18.1,0x00c000,-34.2,0.00e-0
1665340117,C;S;V;F,18.0,0x00c000,-33.9,
1665340118,,18.1,0x00c000,-34.1,0.00e-0
1665340119,C;S;V;F,18.1,0x00c000,-34.0,0.00e-0
1665340120,C;S;V;F,17.9,0x00c000,-34.7,0.00e-0
1665340121,C;S;V;F,,0x00c000,-34.6,0.00e-0
1665340122,C;S;V;F,17.5,0x00c000,,0.00e-0
1665340123,C;S;V;F,17.7,0x00c000,-34.8,0.00e-0
1665340124,C;S;V;F,17.4,0x00c000,-35.3,0.00e-0
1665340125,C;S;V;F,17.1,0x00c000,-35.6,0.00e-0
1665340126,C;S;V;F,17.2,0x00c000,-35.5,0.00e-0
1665340127,C;S;V;F,17.2,0x00c000,-35.2,0.00e-0
1665340128,C;S;V;F,17.0,0x00c000,-35.4,0.00e-0
1665340129,C;S;V;F,16.8,0x00c000,-35.7,
1665340130,,16.6,0x00c000,-36.2,0.00e-0
1665340131,C;S;V;F,16.4,0x00c000,-36.4,0.00e-0
1665340132,C;S;V;F,,0x00c000,-36.0,0.00e-0
1665340133,C;S;V;F,16.5,0x00c000,-36.5,0.00e-0
1665340134,C;S;V;F,16.2,0x00c000,,0.00e-0
1665340135,C;S;V;F,15.8,0x00c000,-37.5,0.00e-0
1665340136,C;S;V;F,14.9,0x00c000,-38.0,0.00e-0
1665340137,C;S;V;F,14.8,0x00c000,-38.4,0.00e-0
1665340138,C;S;V;F,15.1,0x00c000,-38.0,0.00e-0
1665340139,C;S;V;F,14.9,0x00c000,-38.2,0.00e-0
1665340140,C;S;V;F,14.4,0x00c000,-38.5,0.00e-0
1665340141,C;S;V;F,14.2,0x00c000,-38.8,
1665340142,,14.1,0x00c000,-39.3,0.00e-0
1665340143,C;S;V;F,,0x00c000,-39.6,0.00e-0
1665340144,C;S;V;F,13.6,0x00c000,,0.00e-0
1665340145,C;S;V;F,13.4,0x00c000,-39.6,0.00e-0
1665340146,C;S;V;F,13.5,0x00c000,-39.4,0.00e-0
1665340148,,,0x00c000,-38.6,
1665340149,C;S;V;F,14.5,0x00c000,,0.00e-0
1665340150,C;S;V;F,14.7,0x00c000,-38.3,0.00e-0
1665340151,C;S;V;F,14.7,0x00c000,-38.6,0.00e-0
1665340152,C;S;V;F,15.1,0x00c000,-37.9,0.00e-0
1665340153,C;S;V;F,15.1,0x00c000,-37.4,0.00e-0
1665340154,C;S;V;F,15.7,0x00c000,-37.3,
1665340155,,15.7,0x00c000,-37.3,0.00e-0
1665340156,C;S;V;F,15.8,0x00c000,-36.9,0.00e-0
1665340157,C;S;V;F,15.5,0x00c000,-37.4,0.00e-0
1665340158,C;S;V;F,,0x00c000,-37.6,0.00e-0
1665340159,C;S;V;F,15.3,0x00c000,-37.4,0.00e-0
1665340160,C;S;V;F,15.5,0x00c000,,0.00e-0
1665340161,C;S;V;F,15.9,0x00c000,-36.7,0.00e-0
1665340162,C;S;V;F,15.9,0x00c000,-36.7,0.00e-0
1665340163,C;S;V;F,15.9,0x00c000,-37.0,0.00e-0
1665340164,C;S;V;F,15.8,0x00c000,-36.9,
1665340165,,15.7,0x00c000,-37.2,0.00e-0
1665340166,C;S;V;F,15.5,0x00c000,-37.5,0.00e-0
1665340167,C;S;V;F,15.3,0x00c000,-37.8,0.00e-0
1665340168,C;S;V;F,,0x00c000,-37.4,0.00e-0
1665340169,C;S;V;F,15.2,0x00c000,,0.00e-0
1665340170,C;S;V;F,15.2,0x00c000,-37.4,0.00e-0
1665340171,C;S;V;F,14.8,0x00c000,-38.2,0.00e-0
1665340172,C;S;V;F,14.8,0x00c000,-38.8,0.00e-0
1665340173,C;S;V;F,14.2,0x00c000,-39.1,0.00e-0
1665340174,C;S;V;F,13.6,0x00c000,-39.2,0.00e-0
1665340175,C;S;V;F,13.2,0x00c000,-39.7,0.00e-0
1665340176,C;S;V;F,12.6,0x00c000,-40.4,4.54e-7
1665340177,C;S;V;F,12.9,0x00c000,-40.0,
1665340178,,13.5,0x00c000,-39.3,6.06e-7
1665340179,C;S;V;F,13.9,0x00c000,-39.3,1.51e-7
1665340180,C;S;V;F,,0x00c000,-39.5,0.00e-0
1665340181,C;S;V;F,13.5,0x00c000,-40.1,0.00e-0
1665340182,C;S;V;F,12.8,0x00c000,,0.00e-0
1665340183,C;S;V;F,12.4,0x00c000,-40.8,6.06e-7
1665340184,C;S;V;F,11.8,0x00c000,-41.1,4.68e-6
1665340185,C;S;V;F,11.7,0x00c000,-41.1,7.10e-6
1665340186,C;S;V;F,12.0,0x00c000,-40.7,6.50e-6
1665340187,C;S;V;F,12.5,0x00c000,-40.3,2.11e-6
1665340188,C;S;V;F,12.5,0x00c000,-40.3,7.57e-7
1665340189,C;S;V;F,12.4,0x00c000,-40.4,1.21e-6
1665340190,C;S;V;F,12.1,0x00c000,-40.6,1.51e-6
1665340191,C;S;V;F,12.1,0x00c000,-40.8,
1665340192,,12.1,0x00c000,-40.6,2.11e-6
1665340193,C;S;V;F,12.2,0x00c000,-40.5,2.57e-6
1665340194,C;S;V;F,,0x00c000,-40.4,2.11e-6
1665340195,C;S;V;F,12.3,0x00c000,-40.0,1.81e-6
1665340196,C;S;V;F,12.8,0x00c000,,1.05e-6
1665340197,C;S;V;F,13.7,0x00c000,-39.3,0.00e-0
1665340198,C;S;V;F,14.0,0x00c000,-38.9,0.00e-0
1665340199,C;S;V;F,14.1,0x00c000,-38.8,0.00e-0
1665340200,C;S;V;F,14.1,0x00c000,-38.8,0.00e-0
1665340201,C;S;V;F,13.9,0x00c000,-38.9,0.00e-0
1665340202,,13.9,0x00c000,-39.0,
1665340203,C;S;V;F,14.0,0x00c000,-38.8,0.00e-0
1665340204,C;S;V;F,14.3,0x00c000,-38.8,0.00e-0
1665340205,C;S;V;F,,0x00c000,-38.3,0.00e-0
1665340206,C;S;V;F,14.5,0x00c000,,0.00e-0
1665340207,C;S;V;F,14.6,0x00c000,-38.4,0.00e-0
1665340208,C;S;V;F,14.6,0x00c000,-38.2,0.00e-0
1665340209,C;S;V;F,14.5,0x00c000,-38.4,0.00e-0
1665340211,,14.8,0x00c000,-38.2,
1665340212,C;S;V;F,14.9,0x00c000,-38.1,0.00e-0
1665340213,C;S;V;F,14.8,0x00c000,-38.0,0.00e-0
1665340214,C;S;V;F,,0x00c000,,0.00e-0
1665340215,C;S;V;F,14.9,0x00c000,-37.7,0.00e-0
1665340216,C;S;V;F,15.0,0x00c000,-37.9,0.00e-0
1665340217,C;S;V;F,15.0,0x00c000,-37.9,0.00e-0
1665340218,C;S;V;F,15.0,0x00c000,-38.0,0.00e-0
1665340219,C;S;V;F,14.8,0x00c000,-38.4,0.00e-0
1665340220,C;S;V;F,14.5,0x00c000,-38.5,0.00e-0
1665340221,C;S;V;F,14.3,0x00c000,-38.8,0.00e-0
1665340222,C;S;V;F,14.3,0x00c000,-38.8,
1665340223,,14.3,0x00c000,-38.6,0.00e-0
1665340224,C;S;V;F,14.4,0x00c000,-38.3,0.00e-0
1665340225,C;S;V;F,14.5,0x00c000,-38.4,0.00e-0
1665340226,C;S;V;F,,0x00c000,-38.1,0.00e-0
1665340227,C;S;V;F,14.7,0x00c000,,0.00e-0
1665340228,C;S;V;F,15.0,0x00c000,-37.9,0.00e-0
1665340229,C;S;V;F,15.1,0x00c000,-37.8,0.00e-0
1665340230,C;S;V;F,15.1,0x00c000,-37.6,0.00e-0
1665340231,C;S;V;F,15.2,0x00c000,-37.7,0.00e-0
1665340232,C;S;V;F,15.1,0x00c000,-38.0,0.00e-0
1665340233,C;S;V;F,14.8,0x00c000,-38.1,0.00e-0
1665340234,C;S;V;F,14.6,0x00c000,-38.4,0.00e-0
1665340235,,14.5,0x00c000,-38.5,
1665340236,C;S;V;F,14.2,0x00c000,-38.7,0.00e-0
1665340237,C;S;V;F,14.1,0x00c000,-38.8,0.00e-0
1665340238,C;S;V;F,,0x00c000,-39.1,0.00e-0
1665340239,C;S;V;F,13.9,0x00c000,-39.1,0.00e-0
1665340240,C;S;V;F,14.2,0x00c000,,0.00e-0
1665340241,C;S;V;F,13.9,0x00c000,-39.3,0.00e-0
1665340242,C;S;V;F,13.6,0x00c000,-39.2,0.00e-0
1665340243,C;S;V;F,13.8,0x00c000,-39.2,0.00e-0
1665340244,C;S;V;F,13.9,0x00c000,-38.8,0.00e-0
1665340245,C;S;V;F,14.0,0x00c000,-38.7,
1665340246,,14.6,0x00c000,-38.3,0.00e-0
1665340247,C;S;V;F,14.7,0x00c000,-38.2,0.00e-0